NOAA 16 DEB, 42333

Orbit data source: Space-Track

NOAA 16 DEB, 42333 is space debris in SSO originally from a launch on Thu, 21 Sep 2000 UTC launched from the Air Force Western Test Range (AFWTR). Debris objects in space refer to the collection of defunct objects orbiting the Earth. Examples of debris include non-operational satellites, rocket bodies, and fragments generated from explosions, collisions, or faulty payload assembly.

Loading next visibility...
Identifier
42333, 2000-055PZ
Orbit
SSO
Country
Flag of USUS
Related business
Manufacturer
Unknown
Mission
Spacecraft
Bus & Motor
Unknown
Mass
Unknown
Launch date (UTC)
2000-09-21 (26 years ago)
Launch vehicle
Unknown
Launch site
Air Force Western Test Range (AFWTR)
Object type
Payload
Rocket body
Debris
Shape & HBR
Unknown shape, 0.1 m
Radar Cross Section
Medium (>0.1 m² and <1 m²)

Expand to show TLE details & history
Last TLE update: 1 week ago

TLE from 1 week ago
0 NOAA 16 DEB
1 42333U 00055PZ  26166.57792174  .00003673  00000-0  14705-2 0  9996
2 42333  98.9709 295.3156 0015135 221.0499 138.9544 14.28917036529777
Epoch: 2026-06-15T13:52Z
TLE epoch observation values (Epoch: 2026-06-15T13:52:12.438Z)
Latitude
0.00003°
Longitude
-176.59853°
Altitude
806.468 km
Speed
7.446 km/s
True Right ascension
19h 41m 15s
True Declination
0° 00' 00"
Sunlit
Object was in full shadow at epoch
Visualization orbit readout
Latitude
Unknown
Longitude
Unknown
Altitude
Unknown
Speed
Unknown
Apparent Right ascension
Unknown
Apparent Declination
Unknown
Sunlit
N/A
Visualization observer readout
Local Sidereal Time
21:38:07
Azimuth
Unknown
Elevation
Unknown
Doppler factor
Unknown
Orbital elements
Apogee altitude
803.365 km
Perigee altitude
781.66 km
Semi-major axis
7,170.649 km
Eccentricity
0.00151
Inclination
98.9709°
RAAN
295.3156°
Arg. of periapsis
221.0499°
True anomaly
139.06812°
Mean anomaly
138.9544°
Eccentric anomaly
139.01128°
Mean motion
3.57442 °/min
Orbital period
100.72 mins
BSTAR
0.0014705
Loading maneuver chart data...
Computing Atmospheric mass density...
Loading historical data...
Loading historical data...
Loading historical data...
Loading historical data...
Loading historical data...
Loading historical data...
Loading historical data...

Documentation

Showing up to 5 results
|